Location: Hurstbourne Priors
(51.2000°N, 1.3667°W)
Time: 21:34:29
(UTC+00:00)

Altair - Pass Details

Date: 11 April 2021
Orbit: 1501 x 1683 km, 47.2° (Epoch: 13 May)

Event Time Altitude Azimuth Distance (km) Brightness Sun altitude
Rises 08:42:42 0° 230° (SW) 4,809 9.9 30.3°
Reaches altitude 10° 08:45:56 10° 226° (SW) 3,800 9.5 30.8°
Maximum altitude 08:55:05 51° 154° (SSE) 1,879 9.2 32.0°
Drops below altitude 10° 09:03:56 10° 82° (E) 3,685 10.3 33.2°
Sets 09:07:01 0° 78° (ENE) 4,654 10.6 33.6°
